Location: Alafon
(8.4500°N, 4.2333°E)
Time: 00:18:55
(UTC+00:00)

Explorer 7 - Pass Details

Date: 30 July 2021
Orbit: 484 x 676 km, 50.3° (Epoch: 22 September)

Event Time Altitude Azimuth Distance (km) Brightness Sun altitude
Rises 13:34:09 0° 325° (NW) 2,909 10.8 62.7°
Reaches altitude 10° 13:36:25 10° 326° (NNW) 2,027 10.2 62.2°
Maximum altitude 13:41:07 77° 53° (NE) 678 8.3 61.2°
Drops below altitude 10° 13:45:59 10° 139° (SE) 2,096 9.6 60.1°
Sets 13:48:22 0° 140° (SE) 3,015 10.3 59.5°
